TimeEST,TemperatureF,Dew PointF,Humidity,Sea Level PressureIn,VisibilityMPH,Wind Direction,Wind SpeedMPH,Gust SpeedMPH,PrecipitationIn,Events,Conditions,WindDirDegrees,DateUTC
12:15 AM,44.6,37.4,76,30.38,10.0,East,4.6,-,N/A,,Clear,100,2012-11-12 05:15:00
12:35 AM,44.6,37.4,76,30.38,10.0,ESE,5.8,-,N/A,,Clear,110,2012-11-12 05:35:00
1:15 AM,44.6,37.4,76,30.38,10.0,ESE,4.6,-,N/A,,Clear,120,2012-11-12 06:15:00
1:55 AM,44.6,37.4,76,30.38,10.0,ESE,9.2,-,N/A,,Clear,120,2012-11-12 06:55:00
2:15 AM,44.6,37.4,76,30.38,10.0,SE,3.5,-,N/A,,Clear,130,2012-11-12 07:15:00
2:35 AM,44.6,37.4,76,30.37,10.0,East,4.6,-,N/A,,Clear,100,2012-11-12 07:35:00
3:15 AM,44.6,35.6,71,30.36,10.0,ESE,5.8,-,N/A,,Clear,110,2012-11-12 08:15:00
3:35 AM,44.6,35.6,71,30.35,10.0,East,5.8,-,N/A,,Clear,100,2012-11-12 08:35:00
3:55 AM,44.6,35.6,71,30.35,10.0,ESE,5.8,-,N/A,,Clear,110,2012-11-12 08:55:00
4:15 AM,44.6,35.6,71,30.35,10.0,ESE,3.5,-,N/A,,Clear,110,2012-11-12 09:15:00
4:35 AM,46.4,33.8,62,30.36,10.0,East,5.8,-,N/A,,Clear,100,2012-11-12 09:35:00
4:55 AM,46.4,33.8,62,30.36,10.0,ESE,6.9,-,N/A,,Clear,110,2012-11-12 09:55:00
5:15 AM,46.4,33.8,62,30.35,10.0,ESE,5.8,-,N/A,,Clear,110,2012-11-12 10:15:00
5:35 AM,44.6,33.8,66,30.35,10.0,East,6.9,-,N/A,,Clear,100,2012-11-12 10:35:00
5:55 AM,46.4,33.8,62,30.36,10.0,ESE,3.5,-,N/A,,Clear,120,2012-11-12 10:55:00
6:15 AM,44.6,33.8,66,30.36,10.0,ESE,5.8,-,N/A,,Clear,110,2012-11-12 11:15:00
6:35 AM,42.8,35.6,76,30.36,10.0,Calm,Calm,-,N/A,,Clear,0,2012-11-12 11:35:00
6:55 AM,44.6,33.8,66,30.35,10.0,ESE,10.4,-,N/A,,Clear,120,2012-11-12 11:55:00
7:15 AM,46.4,33.8,62,30.36,10.0,ESE,11.5,-,N/A,,Clear,120,2012-11-12 12:15:00
7:55 AM,48.2,35.6,62,30.35,10.0,ESE,12.7,-,N/A,,Clear,120,2012-11-12 12:55:00
8:15 AM,50.0,35.6,58,30.35,10.0,ESE,6.9,-,N/A,,Clear,110,2012-11-12 13:15:00
8:35 AM,51.8,37.4,58,30.35,10.0,Calm,Calm,-,N/A,,Clear,0,2012-11-12 13:35:00
8:55 AM,55.4,37.4,51,30.34,10.0,ESE,6.9,-,N/A,,Clear,120,2012-11-12 13:55:00
9:15 AM,55.4,39.2,54,30.34,10.0,ESE,6.9,-,N/A,,Clear,120,2012-11-12 14:15:00
9:35 AM,59.0,39.2,48,30.32,10.0,Calm,Calm,-,N/A,,Clear,0,2012-11-12 14:35:00
9:55 AM,62.6,39.2,42,30.32,10.0,Calm,Calm,-,N/A,,Clear,0,2012-11-12 14:55:00
10:15 AM,64.4,39.2,40,30.32,10.0,SSW,3.5,-,N/A,,Clear,200,2012-11-12 15:15:00
10:35 AM,66.2,39.2,37,30.31,10.0,SSW,5.8,-,N/A,,Clear,200,2012-11-12 15:35:00
10:55 AM,69.8,39.2,33,30.30,10.0,SSW,6.9,-,N/A,,Clear,200,2012-11-12 15:55:00
11:15 AM,69.8,39.2,33,30.30,10.0,South,10.4,-,N/A,,Clear,170,2012-11-12 16:15:00
11:55 AM,69.8,39.2,33,30.28,10.0,South,11.5,17.3,N/A,,Clear,170,2012-11-12 16:55:00
12:15 PM,69.8,39.2,33,30.27,10.0,South,13.8,18.4,N/A,,Clear,180,2012-11-12 17:15:00
12:35 PM,71.6,39.2,31,30.27,10.0,SSW,10.4,-,N/A,,Clear,200,2012-11-12 17:35:00
12:55 PM,71.6,41.0,33,30.26,10.0,South,13.8,18.4,N/A,,Clear,190,2012-11-12 17:55:00
1:15 PM,71.6,39.2,31,30.26,10.0,South,15.0,19.6,N/A,,Clear,180,2012-11-12 18:15:00
1:35 PM,71.6,39.2,31,30.25,10.0,South,12.7,18.4,N/A,,Clear,190,2012-11-12 18:35:00
1:55 PM,69.8,39.2,33,30.25,10.0,South,11.5,17.3,N/A,,Clear,180,2012-11-12 18:55:00
2:15 PM,69.8,39.2,33,30.24,10.0,South,13.8,-,N/A,,Clear,180,2012-11-12 19:15:00
2:35 PM,69.8,39.2,33,30.24,10.0,South,12.7,19.6,N/A,,Clear,170,2012-11-12 19:35:00
2:55 PM,69.8,39.2,33,30.23,10.0,South,16.1,21.9,N/A,,Clear,170,2012-11-12 19:55:00
3:15 PM,68.0,39.2,35,30.23,10.0,South,13.8,19.6,N/A,,Clear,190,2012-11-12 20:15:00
3:55 PM,64.4,41.0,42,30.23,0.5,SE,11.5,23.0,N/A,,Unknown,140,2012-11-12 20:55:00
4:15 PM,62.6,42.8,48,30.23,1.0,SE,17.3,-,N/A,,Clear,140,2012-11-12 21:15:00
4:35 PM,60.8,44.6,55,30.23,10.0,SE,15.0,21.9,N/A,,Clear,140,2012-11-12 21:35:00
4:55 PM,59.0,44.6,59,30.23,10.0,SE,18.4,26.5,N/A,,Clear,140,2012-11-12 21:55:00
5:35 PM,57.2,46.4,67,30.23,10.0,SSE,13.8,18.4,N/A,,Clear,160,2012-11-12 22:35:00
5:55 PM,57.2,46.4,67,30.22,10.0,SSE,15.0,19.6,N/A,,Clear,150,2012-11-12 22:55:00
6:15 PM,57.2,46.4,67,30.20,10.0,ESE,16.1,26.5,N/A,,Clear,120,2012-11-12 23:15:00
6:35 PM,57.2,46.4,67,30.20,10.0,ESE,17.3,21.9,N/A,,Clear,120,2012-11-12 23:35:00
6:55 PM,57.2,46.4,67,30.19,10.0,ESE,16.1,-,N/A,,Clear,120,2012-11-12 23:55:00
7:15 PM,57.2,46.4,67,30.19,10.0,SE,13.8,20.7,N/A,,Mostly Cloudy,130,2012-11-13 00:15:00
7:35 PM,57.2,48.2,72,30.16,10.0,ESE,18.4,23.0,N/A,,Overcast,110,2012-11-13 00:35:00
7:55 PM,57.2,48.2,72,30.15,10.0,ESE,17.3,23.0,N/A,,Mostly Cloudy,120,2012-11-13 00:55:00
8:15 PM,57.2,48.2,72,30.15,10.0,ESE,10.4,-,N/A,,Mostly Cloudy,120,2012-11-13 01:15:00
8:35 PM,57.2,48.2,72,30.15,10.0,SE,10.4,-,N/A,,Partly Cloudy,130,2012-11-13 01:35:00
8:55 PM,60.8,46.4,59,30.14,10.0,South,17.3,-,N/A,,Clear,170,2012-11-13 01:55:00
9:15 PM,60.8,46.4,59,30.13,10.0,South,17.3,25.3,N/A,,Clear,180,2012-11-13 02:15:00
9:35 PM,60.8,46.4,59,30.14,10.0,South,10.4,21.9,N/A,,Clear,190,2012-11-13 02:35:00
9:55 PM,62.6,46.4,55,30.13,10.0,South,19.6,26.5,N/A,,Mostly Cloudy,170,2012-11-13 02:55:00
10:15 PM,62.6,46.4,55,30.12,10.0,SSE,13.8,27.6,N/A,,Overcast,160,2012-11-13 03:15:00
10:35 PM,62.6,48.2,59,30.11,10.0,South,19.6,31.1,N/A,,Mostly Cloudy,170,2012-11-13 03:35:00
10:55 PM,62.6,46.4,55,30.10,10.0,South,19.6,28.8,N/A,,Scattered Clouds,170,2012-11-13 03:55:00
11:15 PM,62.6,48.2,59,30.09,10.0,South,18.4,25.3,N/A,,Mostly Cloudy,170,2012-11-13 04:15:00
11:35 PM,62.6,48.2,59,30.08,10.0,South,15.0,29.9,N/A,,Overcast,170,2012-11-13 04:35:00
11:55 PM,62.6,48.2,59,30.08,10.0,South,15.0,21.9,N/A,,Overcast,170,2012-11-13 04:55:00